Livingston, MT

6:45 AM MDT on October 22, 2017 (GMT -0600)
Mission

Weather History for KLVM - June, 2014

Change the Weather History Date:

Sunday, June 1, 2014

  Actual Average Record
Temperature  
Mean Temperature 54 °F 55 °F  
Max Temperature 63 °F 69 °F 86 °F (1956)
Min Temperature 45 °F 41 °F 30 °F (1951)
Degree Days  
Heating Degree Days 11 10  
Month to date heating degree days 11 10  
Since 1 June heating degree days 11 10  
Since 1 July heating degree days 7172 7406  
Cooling Degree Days 0 0  
Month to date cooling degree days 0 0  
Year to date cooling degree days 5 1  
Since 1 June cooling degree days 0 0  
Growing Degree Days 3 (Base 50)    
Moisture  
Dew Point 44 °F    
Average Humidity 71    
Maximum Humidity 86    
Minimum Humidity 55    
Precipitation  
Precipitation 0.15 in 0.10 in 0.55 in (1973)
Month to date precipitation 0.15 0.10  
Year to date precipitation 6.65 6.36  
Sea Level Pressure  
Sea Level Pressure 29.99 in    
Wind  
Wind Speed 8 mph (WSW)    
Max Wind Speed 22 mph    
Max Gust Speed 27 mph    
Visibility 9 miles    
Events Rain , Thunderstorm    
T = Trace of Precipitation, MM = Missing Value Source: NWS Daily Summary

Daily Weather History Graph

Daily Weather History Graph

Search for Another Location

Airport or City:

Trip Planner

Search our weather history database for the weather conditions in past years. The results will help you decide how hot, cold, wet, or windy it might be!

Date:

Astronomy

Jun. 01, 2014 Rise Set
Actual Time 5:35 AM MDT 9:04 PM MDT
Civil Twilight 4:58 AM MDT 9:41 PM MDT
Nautical Twilight 4:09 AM MDT 10:30 PM MDT
Astronomical Twilight 3:06 AM MDT 11:34 PM MDT
Moon 9:16 AM MDT (6/1) 11:53 PM MDT (6/1)
Length of Visible Light 16h 42m
Length of Day
15h 28m
Waxing Crescent, 15% of the Moon is Illuminated
Jun 1
Waxing Crescent
Jun 5
First Quarter
Jun 12
Full
Jun 19
Last Quarter
Jun 27
New

Hourly Weather History & Observations

Time (MDT) Temp. Windchill Dew Point Humidity Pressure Visibility Wind Dir Wind Speed Gust Speed Precip Events Conditions
12:53 AM 46.0 °F 43.1 °F 42.1 °F 86% 29.89 in 10.0 mi West 5.8 mph - N/A   Partly Cloudy
1:53 AM 48.0 °F - 44.1 °F 86% 29.90 in 10.0 mi WSW 5.8 mph - N/A   Overcast
2:53 AM 50.0 °F - 44.1 °F 80% 29.90 in 10.0 mi NW 6.9 mph - N/A   Mostly Cloudy
3:53 AM 50.0 °F - 44.1 °F 80% 29.93 in 10.0 mi WNW 5.8 mph - N/A   Overcast
4:53 AM 51.1 °F - 43.0 °F 74% 29.92 in 10.0 mi WSW 17.3 mph 21.9 mph N/A   Overcast
5:53 AM 50.0 °F - 43.0 °F 77% 29.92 in 10.0 mi WSW 12.7 mph - 0.02 in   Overcast
6:53 AM 50.0 °F - 43.0 °F 77% 29.94 in 10.0 mi West 5.8 mph - N/A   Mostly Cloudy
8:53 AM 52.0 °F - 44.1 °F 74% 29.99 in 10.0 mi WSW 5.8 mph - N/A   Overcast
9:53 AM 51.1 °F - 46.0 °F 83% 30.01 in 10.0 mi WSW 4.6 mph - 0.01 in Rain Light Rain
10:53 AM 54.0 °F - 46.9 °F 77% 30.00 in 10.0 mi SSW 6.9 mph - 0.01 in   Overcast
11:53 AM 57.9 °F - 45.0 °F 62% 29.99 in 10.0 mi WSW 6.9 mph - N/A   Scattered Clouds
12:53 PM 57.9 °F - 43.0 °F 58% 30.00 in 8.0 mi NNW 17.3 mph 21.9 mph 0.00 in Rain Light Rain
1:12 PM 53.1 °F - 41.0 °F 64% 30.03 in 2.5 mi South 15.0 mph 26.5 mph 0.05 in Rain Light Rain
1:16 PM 52.0 °F - 42.1 °F 69% 30.04 in 5.0 mi South 15.0 mph - 0.05 in Rain Light Rain
1:32 PM 55.0 °F - 42.1 °F 62% 30.06 in 10.0 mi North - - 0.05 in Thunderstorm Overcast
1:53 PM 52.0 °F - 44.1 °F 74% 30.03 in 10.0 mi West 10.4 mph - 0.05 in   Overcast
2:53 PM 52.0 °F - 46.0 °F 80% 30.03 in 7.0 mi South 13.8 mph - 0.06 in Rain Light Rain
3:53 PM 60.1 °F - 45.0 °F 57% 30.01 in 10.0 mi NNW 5.8 mph - 0.00 in   Mostly Cloudy
4:53 PM 57.0 °F - 44.1 °F 62% 30.02 in 10.0 mi ENE 8.1 mph - N/A   Mostly Cloudy
5:53 PM 60.1 °F - 44.1 °F 55% 29.99 in 10.0 mi Variable 3.5 mph - N/A   Clear
6:53 PM 59.0 °F - 44.1 °F 58% 29.99 in 10.0 mi West 8.1 mph - N/A   Clear
7:53 PM 55.9 °F - 45.0 °F 67% 30.01 in 10.0 mi West 8.1 mph - N/A   Clear
9:53 PM 50.0 °F - 42.1 °F 74% 30.04 in 10.0 mi South 3.5 mph - N/A   Mostly Cloudy
10:53 PM 46.0 °F 44.8 °F 42.1 °F 86% 30.04 in 10.0 mi West 3.5 mph - N/A   Clear
11:53 PM 46.9 °F - 42.1 °F 83% 30.02 in 10.0 mi NW 9.2 mph - N/A   Mostly Cloudy